Home   Weather   Cascais   Past weeks

Flag for Portugal Past Weather in Cascais, Portugal — Yesterday and Last 2 Weeks

Now
54 °F

Passing clouds.


Feels Like: 52 °F
Forecast: 54 / 64 °F
Wind: 6 mph from Northeast

Location: Lisbon Portela Airport

Current Time: Dec 11, 2016 at 4:28:47 am

Latest Report: Dec 11, 2016 at 4:00 am


Visibility: N/A

Pressure: 30.27 "Hg

Humidity: 94%

Dew Point: 52 °F

Location of CascaisLocation

Past Weather in Cascais — Graph

°F

Cascais Temperature Yesterday

Maximum temperature yesterday: 64 °F (at 3:30 pm)
Minimum temperature yesterday: 54 °F (at 2:30 am)
Average temperature yesterday: 57 °F

High & Low Weather Summary for the Past Weeks

 TemperatureHumidityPressure
High66 °F (Dec 5, 2:30 pm)100% (Nov 26, 3:00 am)30.39 "Hg (Nov 26, 3:00 am)
Low46 °F (Nov 29, 7:30 am)59% (Nov 27, 2:30 pm)29.53 "Hg (Nov 26, 4:00 am)
Average56 °F90%30.02 "Hg
* Reported Nov 26 3:00 am — Dec 11 3:00 am, Cascais, Weather by CustomWeather, © 2016

Note: Actual official high and low records may vary slightly from our data, if they occured in-between our weather recording intervals... More about our weather records

Advertising

Cascais Weather History for the Previous 24 Hours

Scroll right to see more
 ConditionsComfort  
Time TempWeatherWind HumidityBarometerVisibility
3:00 am
Sun, Dec 11
54 °FPassing clouds.7 mph100%30.27 "Hg4 mi
2:30 am54 °FPassing clouds.6 mph94%30.27 "Hg4 mi
2:00 am54 °FPassing clouds.7 mph100%30.27 "Hg4 mi
1:30 am54 °FPassing clouds.6 mph100%30.27 "HgN/A
1:00 am52 °FClear.3 mph100%30.30 "Hg10 mi
12:30 am54 °FPassing clouds.3 mph100%30.30 "HgN/A
12:00 am55 °FPassing clouds.5 mph94%30.30 "HgN/A
11:30 pm
Sat, Dec 10
54 °FClear.2 mph100%30.30 "Hg10 mi
11:00 pm54 °FClear.2 mph100%30.30 "Hg10 mi
10:30 pm55 °FClear.2 mph94%30.30 "Hg10 mi
10:00 pm55 °FClear.2 mph100%30.30 "Hg10 mi
9:30 pm55 °FClear.3 mph94%30.30 "Hg10 mi
9:00 pm57 °FClear.3 mph94%30.30 "Hg10 mi
8:30 pm57 °FClear.3 mph94%30.27 "Hg10 mi
8:00 pm57 °FClear.3 mph94%30.30 "Hg10 mi
7:30 pm57 °FClear.1 mph94%30.30 "Hg10 mi
7:00 pm59 °FClear.1 mph88%30.27 "Hg10 mi
6:30 pm63 °FPassing clouds.3 mph83%30.27 "HgN/A
6:00 pm61 °FClear.1 mph88%30.27 "Hg10 mi
5:30 pm63 °FPassing clouds.3 mph83%30.27 "HgN/A
5:00 pm63 °FSunny.2 mph83%30.27 "Hg10 mi
4:30 pm63 °FPassing clouds.6 mph83%30.27 "HgN/A
4:00 pm63 °FPassing clouds.6 mph83%30.27 "HgN/A
3:30 pm64 °FPassing clouds.6 mph78%30.27 "HgN/A
3:00 pm63 °FPassing clouds.5 mph83%30.27 "HgN/A
2:30 pm63 °FPassing clouds.6 mph83%30.27 "HgN/A
2:00 pm63 °FPassing clouds.6 mph83%30.27 "HgN/A
1:30 pm63 °FPassing clouds.5 mph83%30.27 "HgN/A
1:00 pm63 °FPassing clouds.7 mph83%30.30 "HgN/A
12:30 pm61 °FPassing clouds.8 mph83%30.30 "HgN/A
12:00 pm61 °FScattered clouds.9 mph88%30.30 "HgN/A
11:30 am59 °FScattered clouds.7 mph94%30.33 "HgN/A
11:00 am55 °FPartly sunny.8 mph100%30.33 "Hg4 mi
10:30 am55 °FFog.8 mph100%30.33 "Hg1 mi
10:00 am55 °FFog.8 mph100%30.33 "Hg0 mi
9:30 am54 °FFog.8 mph100%30.30 "Hg0 mi
9:00 am55 °FFog.7 mph94%30.30 "Hg2 mi
8:30 am55 °FFog.6 mph94%30.30 "Hg3 mi
8:00 am55 °FFog.7 mph94%30.30 "Hg3 mi
7:30 am55 °FPassing clouds.6 mph94%30.27 "Hg4 mi
7:00 am54 °FPassing clouds.6 mph100%30.27 "Hg4 mi
6:30 am54 °FPassing clouds.7 mph100%30.27 "Hg4 mi
6:00 am54 °FMostly cloudy.8 mph100%30.27 "Hg4 mi
5:30 am55 °FMostly cloudy.9 mph94%30.27 "Hg4 mi
5:00 am55 °FMostly cloudy.8 mph94%30.27 "Hg4 mi
4:30 am55 °FLow clouds.8 mph94%30.27 "Hg4 mi
4:00 am55 °FPassing clouds.8 mph94%30.27 "Hg4 mi
Weather by CustomWeather, © 2016

See weather overviewHow to use our weather pages